Greer, SC

1:37 PM EST on February 23, 2017 (GMT -0500)
Greenville-Spartanburg International

Weather History for KGSP - December, 2011

Change the Weather History Date:

Friday, December 23, 2011

  Actual Average Record
Temperature  
Mean Temperature 55 °F 43 °F  
Max Temperature 64 °F 52 °F 70 °F (1970)
Min Temperature 46 °F 33 °F 10 °F (1989)
Degree Days  
Heating Degree Days 10 22  
Month to date heating degree days 341 469  
Since 1 July heating degree days 881 1022  
Cooling Degree Days 0 0  
Month to date cooling degree days 0 0  
Year to date cooling degree days 2051 1715  
Growing Degree Days 5 (Base 50)    
Moisture  
Dew Point 48 °F    
Average Humidity 73    
Maximum Humidity 100    
Minimum Humidity 46    
Precipitation  
Precipitation T in 0.13 in 2.32 in (1907)
Month to date precipitation 2.67 3.12  
Year to date precipitation 44.66 46.20  
Snow  
Snow 0.00 in 0.00 in 1.40 in (1963)
Month to date snowfall 0.0 0.2  
Since 1 July snowfall 0.0 0.3  
Snow Depth 0.00 in    
Sea Level Pressure  
Sea Level Pressure 30.07 in    
Wind  
Wind Speed 5 mph (North)    
Max Wind Speed 23 mph    
Max Gust Speed 33 mph    
Visibility 10 miles    
Events Rain    
T = Trace of Precipitation, MM = Missing Value Source: NWS Daily Summary

Daily Weather History Graph

Daily Weather History Graph

Search for Another Location

Airport or City:

Trip Planner

Search our weather history database for the weather conditions in past years. The results will help you decide how hot, cold, wet, or windy it might be!

Date:

Astronomy

Dec. 23, 2011 Rise Set
Actual Time 7:33 AM EST 5:22 PM EST
Civil Twilight 7:05 AM EST 5:50 PM EST
Nautical Twilight 6:33 AM EST 6:22 PM EST
Astronomical Twilight 6:02 AM EST 6:52 PM EST
Moon 6:21 AM EST 4:30 PM EST
Length of Visible Light 10h 45m
Length of Day
9h 48m
Waning Crescent, 1% of the Moon is Illuminated
Dec 23
Waning Crescent
Dec 24
New
Jan 1
First Quarter
Jan 9
Full
Jan 16
Last Quarter

Hourly Weather History & Observations

Time (EST) Temp. Dew Point Humidity Pressure Visibility Wind Dir Wind Speed Gust Speed Precip Events Conditions
12:00 AM 64.4 °F 60.8 °F 88% 29.93 in 10.0 mi SW 15.0 mph - N/A   Overcast
12:48 AM 62.6 °F 60.8 °F 94% 29.92 in 9.0 mi SW 21.9 mph 33.4 mph N/A   Overcast
12:53 AM 63.0 °F 60.1 °F 90% 29.91 in 10.0 mi SW 15.0 mph 33.4 mph 0.00 in Rain Light Rain
1:53 AM 63.0 °F 60.1 °F 90% 29.92 in 10.0 mi SW 10.4 mph 18.4 mph 0.00 in   Mostly Cloudy
2:03 AM 62.6 °F 59.0 °F 88% 29.94 in 10.0 mi SW 11.5 mph - N/A   Scattered Clouds
2:53 AM 60.1 °F 57.9 °F 93% 29.94 in 10.0 mi WSW 5.8 mph - N/A   Clear
3:25 AM 57.2 °F 57.2 °F 100% 29.96 in 2.0 mi WSW 5.8 mph - N/A   Partly Cloudy
3:35 AM 57.2 °F 55.4 °F 94% 29.96 in 3.0 mi WNW 4.6 mph - N/A   Partly Cloudy
3:53 AM 57.9 °F 57.0 °F 97% 29.96 in 10.0 mi North 3.5 mph - N/A   Mostly Cloudy
4:07 AM 57.2 °F 57.2 °F 100% 29.98 in 10.0 mi NNE 5.8 mph - N/A   Overcast
4:53 AM 54.0 °F 50.0 °F 86% 29.97 in 10.0 mi North 3.5 mph - N/A   Scattered Clouds
5:53 AM 51.1 °F 48.9 °F 92% 30.01 in 10.0 mi NNE 4.6 mph - N/A   Clear
6:53 AM 48.2 °F 44.6 °F 87% 30.06 in 10.0 mi Calm Calm - N/A   Clear
7:53 AM 46.9 °F 44.1 °F 90% 30.08 in 10.0 mi NNE 3.5 mph - N/A   Clear
8:53 AM 51.1 °F 43.0 °F 74% 30.12 in 10.0 mi Calm Calm - N/A   Clear
9:53 AM 55.0 °F 42.1 °F 62% 30.14 in 10.0 mi Calm Calm - N/A   Clear
10:53 AM 57.9 °F 43.0 °F 58% 30.14 in 10.0 mi NNE 5.8 mph - N/A   Clear
11:53 AM 60.1 °F 43.0 °F 53% 30.14 in 10.0 mi NW 4.6 mph - N/A   Clear
12:53 PM 60.8 °F 44.6 °F 55% 30.13 in 10.0 mi Calm Calm - N/A   Clear
1:53 PM 62.1 °F 42.1 °F 48% 30.09 in 10.0 mi NW 4.6 mph - N/A   Clear
2:53 PM 63.0 °F 41.0 °F 45% 30.09 in 10.0 mi Calm Calm - N/A   Clear
3:53 PM 61.0 °F 42.1 °F 50% 30.11 in 10.0 mi NE 6.9 mph - N/A   Clear
4:53 PM 57.0 °F 41.0 °F 55% 30.13 in 10.0 mi North 8.1 mph - N/A   Clear
5:53 PM 55.0 °F 39.9 °F 57% 30.16 in 10.0 mi NNE 8.1 mph - N/A   Clear
6:53 PM 50.0 °F 39.9 °F 68% 30.19 in 10.0 mi NNE 5.8 mph - N/A   Clear
7:53 PM 48.9 °F 39.9 °F 71% 30.21 in 10.0 mi NNE 5.8 mph - N/A   Clear
8:53 PM 48.0 °F 37.9 °F 68% 30.22 in 10.0 mi NE 4.6 mph - N/A   Clear
9:53 PM 48.0 °F 37.9 °F 68% 30.23 in 10.0 mi NE 4.6 mph - N/A   Mostly Cloudy
10:53 PM 46.9 °F 37.9 °F 71% 30.24 in 10.0 mi ENE 4.6 mph - N/A   Mostly Cloudy
11:53 PM 46.9 °F 37.9 °F 71% 30.25 in 10.0 mi ENE 5.8 mph - N/A   Mostly Cloudy